GFSFLT2_prec_cloud_267.txt.gz
Cloud_Cover
96 98 98 99 99 83 30 97 94 100 100 99 100 87 94 74 94 79 90 100 100 100 55 100 100 51 5
100 100 52 46 20 90 100 100 80 97 94 100 100 100 100 100 100 100 100 100 100 62 100 100 99 86 28
100 100 100 98 84 92 99 100 100 100 100 100 100 100 98 100 100 100 100 100 100 100 23 13 13 61 5
100 77 86 100 100 100 100 100 100 100 100 100 100 100 100 100 100 100 100 100 100 100 100 100 100 100 100
100 96 73 90 100 92 46 73 18 87 100 100 100 100 100 100 100 100 100 100 100 100 100 100 100 100 100
100 89 44 100 63 95 90 100 96 5 15 100 100 100 100 100 100 100 100 100 100 100 100 100 100 100 100
21 43 100 100 6 56 51 30 20 100 99 100 100 28 99 100 100 100 100 100 100 100 100 100 100 100 100
56 60 100 100 40 16 8 59 100 100 100 100 48 14 5 28 70 95 100 100 100 100 100 100 100 100 100
60 100 98 48 47 100 99 100 100 100 100 100 33 5 5 5 5 5 5 5 5 5 5 49 87 97 66
100 100 100 100 97 89 84 100 100 100 100 75 14 18 87 7 5 5 5 5 5 5 21 90 95 74 31
100 100 100 100 86 100 100 100 100 100 9 88 100 100 100 98 73 96 89 27 29 70 28 5 57 100 90
100 100 100 100 100 100 87 91 68 99 82 83 100 100 100 100 100 100 100 100 100 100 64 17 73 100 100
100 100 100 100 100 100 100 100 100 99 100 100 100 100 100 100 100 100 100 100 97 98 100 100 100 100 100
100 100 100 100 100 100 100 100 100 100 100 100 100 100 100 100 100 100 100 100 92 100 99 90 100 100 100
100 100 100 100 100 100 100 100 100 100 100 100 100 100 100 100 100 100 100 100 100 99 100 100 100 62 90
100 100 100 100 100 100 100 100 100 100 100 100 100 100 100 100 100 100 100 100 100 100 100 100 100 41 5
100 100 100 100 100 100 100 100 100 100 100 100 100 100 100 100 99 100 100 100 100 100 76 78 74 72 46

GFSFLT2_prec_cloud_270.txt.gz
Cloud_Cover
100 58 6 18 76 100 100 100 100 99 98 100 5 63 32 65 39 100 56 72 82 69 94 93 89 100 100
100 100 84 69 58 99 100 91 100 100 100 97 42 99 96 11 11 95 100 100 100 100 100 99 100 66 73
100 100 100 100 58 58 90 94 83 100 100 96 68 97 100 50 57 97 100 100 100 80 88 66 99 100 100
100 100 100 100 100 100 100 92 99 64 16 5 9 54 100 86 32 18 100 100 100 96 54 100 100 100 100
100 100 100 100 100 100 100 100 100 100 86 100 100 96 100 100 100 100 100 100 100 100 100 100 100 100 100
100 100 100 100 100 100 100 100 100 99 61 8 5 8 37 37 86 54 5 5 100 100 100 100 100 100 100
88 99 100 100 100 95 100 43 34 6 13 5 13 8 44 100 100 91 5 5 59 20 5 17 71 75 74
49 39 100 100 100 28 48 41 66 47 6 13 31 16 88 88 96 100 13 20 6 5 5 5 5 5 5
37 33 99 100 99 97 80 100 100 100 39 43 47 93 100 100 100 22 5 5 5 5 5 5 5 5 10
100 94 96 100 99 74 92 100 100 100 100 46 99 70 100 100 58 65 34 5 5 5 5 5 5 5 21
100 100 74 59 93 100 100 66 87 100 84 96 100 100 100 100 27 95 69 11 13 80 65 5 26 25 100
100 100 100 98 100 100 100 100 99 90 100 100 100 100 100 100 88 53 73 83 68 100 83 40 83 89 97
100 100 100 100 100 100 100 100 100 100 100 100 100 100 100 100 99 100 100 73 96 100 73 56 97 89 98
100 100 100 100 100 100 100 100 100 100 100 100 100 100 100 100 100 100 100 100 99 86 30 87 95 99 100
100 100 100 100 100 100 100 100 100 100 100 100 100 100 100 100 100 100 100 100 100 76 100 87 54 71 40
100 100 100 100 100 100 100 100 100 100 100 100 100 100 100 100 100 100 100 100 100 99 100 100 97 51 5
100 100 100 100 100 100 100 100 100 100 100 100 100 100 100 100 100 100 100 100 100 100 100 68 27 5 5

GFSFLT2_prec_cloud_273.txt.gz
Cloud_Cover
100 100 88 52 100 91 91 100 100 100 92 5 5 5 5 74 99 80 76 50 5 5 6 100 100 85 14
100 100 99 99 100 100 78 70 100 80 36 5 5 5 5 30 96 8 5 24 5 5 22 100 42 34 9
100 100 100 100 60 93 99 100 100 100 100 100 73 17 5 6 89 12 5 12 22 59 5 3 23 97 100
100 100 100 100 100 75 100 100 100 100 100 75 29 75 80 90 55 54 78 6 5 8 5 5 62 24 83
100 100 100 100 100 100 100 100 100 82 91 83 87 85 60 7 6 73 100 62 8 5 5 5 5 5 21
100 100 100 100 100 100 100 100 100 100 100 100 74 94 100 100 100 100 63 5 16 5 5 5 5 5 5
100 100 100 100 100 100 100 100 100 100 100 100 100 95 100 100 100 100 100 98 99 100 100 42 30 5 5
100 100 100 100 100 100 100 100 100 100 100 100 100 100 100 100 100 92 100 100 100 99 100 69 5 5 5
100 100 100 100 100 100 100 100 100 100 100 100 100 100 33 24 46 55 94 99 82 100 100 5 5 5 5
100 100 100 100 100 100 100 100 100 100 100 100 100 84 98 79 71 96 36 100 100 100 5 5 5 5 5
100 100 100 100 100 100 100 100 100 100 100 100 100 100 100 100 81 76 93 74 95 38 5 5 5 11 6
100 100 100 100 100 100 100 100 100 100 100 100 100 100 100 100 100 91 46 98 49 56 5 28 43 68 72
100 100 100 100 100 100 100 100 100 100 100 100 100 100 100 100 88 74 100 56 93 82 93 99 100 100 98
100 100 100 100 100 100 100 100 100 100 100 100 100 100 100 100 100 100 100 100 100 100 100 100 100 63 95
100 100 100 100 100 100 100 100 100 100 100 100 100 100 100 100 100 100 100 100 100 100 100 100 100 85 79
100 100 100 100 100 100 100 100 100 100 100 100 100 100 100 100 100 100 100 100 100 100 100 100 95 67 100
100 100 100 100 100 100 100 100 100 100 100 100 100 100 100 100 100 100 100 100 100 100 100 100 100 23 95

GFSFLT2_prec_cloud_276.txt.gz
Cloud_Cover
100 100 100 100 100 55 100 98 100 100 100 93 93 73 99 99 75 73 100 83 98 100 100 69 49 14 34
100 100 100 100 98 97 96 100 100 100 100 15 9 83 100 100 100 100 98 38 13 41 50 15 100 100 100
100 100 100 100 100 76 98 100 100 99 91 33 36 5 5 5 5 100 10 5 5 5 5 7 82 42 83
100 100 100 100 100 100 100 84 92 100 99 47 16 33 5 5 5 5 5 5 6 62 76 30 25 5 5
100 100 100 100 100 100 100 100 100 100 100 100 88 73 23 8 56 92 5 5 32 70 100 93 5 5 5
100 100 100 100 100 100 100 100 100 100 100 100 100 100 79 25 5 5 5 5 76 100 88 5 5 98 99
100 100 100 100 100 100 100 100 100 100 100 100 100 100 97 24 5 5 29 100 81 37 5 9 81 100 100
100 100 100 100 100 100 100 100 100 100 100 100 100 100 100 76 24 48 57 100 54 44 76 100 100 100 61
100 100 100 100 100 100 100 100 100 100 100 100 100 100 100 100 100 100 100 100 100 100 100 100 100 99 95
100 100 100 100 100 100 100 100 100 100 100 100 100 100 100 100 100 100 100 100 100 100 100 100 100 100 99
100 100 100 100 100 100 100 100 100 100 100 100 100 100 100 100 100 100 100 100 100 100 100 100 100 100 55
100 100 100 100 100 100 100 100 100 100 100 100 100 100 100 100 100 100 100 100 100 100 100 100 100 100 100
100 100 100 100 100 100 100 100 100 100 100 100 100 100 100 100 100 100 100 100 100 100 100 100 100 100 98
100 100 100 100 100 100 100 100 100 100 100 100 100 100 100 100 100 100 100 100 100 100 100 100 100 100 100
100 100 100 100 100 100 100 100 100 100 100 100 100 100 100 100 100 100 100 100 100 100 100 100 100 100 100
100 100 100 100 100 100 100 100 100 100 100 100 100 100 100 100 100 100 100 100 100 100 100 100 100 100 100
98 100 100 100 100 100 100 100 100 100 100 100 100 100 100 100 100 100 100 100 100 100 100 100 100 100 100